Location: ?
(35.4554°N, 139.3092°E)
Time: 02:54:05
(UTC+00:00)

ADEOS II - Pass Details

Date: 21 April 2021
Orbit: 798 x 801 km, 98.6° (Epoch: 11 May)

Event Time Altitude Azimuth Distance (km) Brightness Sun altitude
Rises 18:18:21 0° 351° (N) 3,311 5.6 -20.1°
Reaches altitude 10° 18:21:48 10° 327° (NNW) 2,376 4.5 -19.5°
Maximum altitude 18:24:25 14° 297° (WNW) 2,098 4.0 -19.0°
Enters shadow 18:24:27 14° 296° (WNW) 2,098 4.0 -19.0°
